カタログに戻る

NOAA 16 DEB

運用中PO
NORAD 42402·DEBRIS·🇺🇸 United States

打ち上げ Sep 21, 2000 から Vandenberg Space Force Base

Loading…

次のパス (今後24時間)

TLE

最新Source: Space-Track

元期: Sep 14, 2026, 09:57 UTC

1 42402U 00055SW  26257.41519551  .00002626  00000-0  75468-3 0  9994
2 42402  99.0192 125.5935 0026881 224.4029 135.5006 14.45554425549256

AllMySatでNOAA 16 DEBをリアルタイム追跡

Download on the App Store